Regional Weather Roundup
Issued by NWS

Home | Current Version | Previous Version | Text Only | Print | Product List | Glossary On
Versions: 1 2 3 4 5 6 7 8 9 10 11 12 13 14 15 16 17 18 19 20 21 22 23 24 25 26 27 28 29 30 31 32 33 34 35 36 37 38 39 40 41 42 43 44 45 46 47 48 49 50
000
ASUS43 KDTX 261510
RWRMI
MICHIGAN HOURLY REGIONAL WEATHER ROUNDUP
NATIONAL WEATHER SERVICE DETROIT/PONTIAC MI
1100 AM EDT SAT JUL 26 2014

NOTE: "FAIR" INDICATES FEW OR NO CLOUDS BELOW 12,000 FEET WITH NO
SIGNIFICANT WEATHER AND/OR OBSTRUCTION TO VISIBILITY.

MIZ047>049-052>055-059>063-066>070-074>076-081>083-261600-
SOUTHEAST LOWER MICHIGAN

CITY           SKY/WX    TMP DP  RH WIND       PRES   REMARKS
ADRIAN         SUNNY     74  61  63 W8        29.91F
ALMA           MOSUNNY   71  61  70 CALM      29.89S
ANN ARBOR      SUNNY     75  60  59 SW9       29.90F
BAD AXE        LGT RAIN  64  61  90 W3        29.88F
CARO           RAIN      69  64  83 SE7       29.87F
DETROIT CITY   CLOUDY    76  58  53 VRB7      29.91F
DETROIT        MOSUNNY   75  61  61 S8        29.91F
FLINT          PTSUNNY   74  60  61 SW6       29.90F
GROSSE ILE     MOSUNNY   75  64  69 S6        29.90F
HILLSDALE      SUNNY     74  63  69 W5        29.92S
HOWELL         CLOUDY    71  59  65 CALM      29.91F

CITY           SKY/WX    TMP DP  RH WIND       PRES   REMARKS
JACKSON        MOSUNNY   73  61  65 W7        29.90F
LAMBERTVILLE   SUNNY     77  59  53 W8        29.91F
LANSING        MOSUNNY   71  59  65 SW6       29.90F
LAPEER         CLOUDY    72  58  60 CALM      29.92F
MASON          MOSUNNY   72  60  66 W5        29.90F
MONROE         MOSUNNY   75  63  64 W9        29.89F
MT. CLEMENS    PTSUNNY   76  60  57 W8        29.90S
PONTIAC        CLOUDY    72  58  61 VRB3      29.90F
PORT HOPE        N/A     66  60  81 CALM      29.85F
PORT HURON     PTSUNNY   72  61  68 W5        29.92S
TRI CITIES     PTSUNNY   72  62  71 S9        29.88F
TROY           CLOUDY    73  59  61 SW7       29.91F
SAGINAW HB     PTSUNNY   70  63  78 S9        29.87F
$$
MIZ043>046-050>051-056>058-064>065-071>073-077>080-261600-
SOUTHWEST LOWER MICHIGAN

CITY           SKY/WX    TMP DP  RH WIND       PRES   REMARKS
BATTLE CREEK   PTSUNNY   73  61  65 SW6       29.90F
BENTON HARBOR  CLOUDY    70  61  73 VRB3      29.87S
BIG RAPIDS     CLOUDY    71  62  73 SW6       29.87S
COLDWATER      CLOUDY    73  62  68 MISG      29.91S
FREMONT        CLOUDY    71  63  75 SW6       29.86F
HOLLAND        PTSUNNY   74  63  68 S5        29.87F
GRAND RAPIDS   CLOUDY    73  62  68 SE5       29.88F
IONIA          CLOUDY    71  60  69 CALM      29.89R
KALAMAZOO      CLOUDY    71  61  70 S3        29.89F
LUDINGTON      CLOUDY    69  63  79 SW6       29.85F
MARSHALL       MOSUNNY   73  62  67 SW8       29.89F
MOUNT PLEASANT MOSUNNY   71  62  74 SW6       29.87F
MUSKEGON       CLOUDY    72  61  68 S8        29.86F
SOUTH HAVEN    CLOUDY    70  64  82 S3        29.87F
$$
MIZ016>042-261600-
NORTHERN LOWER MICHIGAN

CITY           SKY/WX    TMP DP  RH WIND       PRES   REMARKS
ALPENA         PTSUNNY   70  61  73 SW7       29.84S
BEAVER ISLAND  LGT RAIN  65  65  99 SW7       29.76S
BELLAIRE       CLOUDY    69  64  83 S5        29.82F
CADILLAC       CLOUDY    68  63  86 SW3       29.86S
CHARLEVOIX     CLOUDY    68  67  94 S9        29.82F
FRANKFORT      CLOUDY    70  61  73 S7        29.83S
GAYLORD        CLOUDY    65  62  90 S7        29.84F
GRAYLING       CLOUDY    67  65  96 S3        29.87S
HARBOR SPRINGS LGT RAIN  65  63  92 S6        29.79F
HOUGHTON LAKE  CLOUDY    64  62  93 MISG      29.86F
MANISTEE       CLOUDY    70  63  78 SW6       29.84F
OSCODA         LGT RAIN  67  60  77 S9        29.83F
PELLSTON       CLOUDY    65  63  93 S5        29.80F
ROGERS CITY    CLOUDY    70  64  81 SW7       29.83S
TRAVERSE CITY  CLOUDY    68  63  84 VRB3      29.82F
$$
MIZ007>008-015-261600-
EASTERN UPPER MICHIGAN

CITY           SKY/WX    TMP DP  RH WIND       PRES   REMARKS
KINROSS        CLOUDY    64  64 100 S8        29.78F
MACKINAC ISLAN CLOUDY    66  64  92 S7        29.78F
NEWBERRY       CLOUDY    64  63  94 S9G20     29.76S FOG
S. S. MARIE    LGT RAIN  66  61  84 S13       29.77F
MUNISING         N/A     71  64  78 S8        29.72F
$$
MIZ004>006-011>014-085-261600-
CENTRAL UPPER MICHIGAN

CITY           SKY/WX    TMP DP  RH WIND       PRES   REMARKS
MANISTIQUE     CLOUDY    60  60  98 SW12G18   29.77R FOG
ESCANABA       CLOUDY    66  61  82 S9        29.77F
MENOMINEE      CLOUDY    70  64  83 W6        29.77F
SAWYER-GWINN   CLOUDY    68  64  88 SW7       29.75F THUNDER
$$
MIZ001>003-009>011-084-261600-
WESTERN UPPER MICHIGAN

CITY           SKY/WX    TMP DP  RH WIND       PRES   REMARKS
IRON MOUNTAIN  CLOUDY    73  65  75 W9        29.76F
HOUGHTON       CLOUDY    69  67  93 W17G25    29.72R FOG
COPPER HARBOR    N/A     68  65  90 MISG      29.69S
$$

ABBREVIATIONS USED IN REMARKS
   TC - TEMPERATURE IN CELSIUS
  WCI - WIND CHILL INDEX
   HX - HEAT INDEX
  VSB - VISIBILITY




USA.gov is the U.S. government's official web portal to all federal, state and local government web resources and services.